カタログに戻る

STARLINK-35878

運用中通信VLEO
NORAD 67178·PAYLOAD·🇺🇸 United States

打ち上げ Dec 17, 2025 から Cape Canaveral Space Force Station

Loading…

次のパス (今後24時間)

TLE

最新Source: CelesTrak SupGP

元期: Sep 14, 2026, 20:57 UTC

1 67178C 25303R   26257.87340278 -.00027166  00000+0 -98384-3 0  2578
2 67178  43.0035 322.2727 0001834 276.0315 266.6013 15.27595421    17

AllMySatでSTARLINK-35878をリアルタイム追跡

Download on the App Store